TimeEST,TemperatureF,Dew PointF,Humidity,Sea Level PressureIn,VisibilityMPH,Wind Direction,Wind SpeedMPH,Gust SpeedMPH,PrecipitationIn,Events,Conditions,WindDirDegrees,DateUTC
12:53 AM,27.0,3.9,37,30.07,10.0,WNW,11.5,20.7,N/A,,Partly Cloudy,290,2013-11-24 05:53:00
1:53 AM,25.0,-0.9,33,30.09,10.0,WNW,12.7,24.2,N/A,,Clear,300,2013-11-24 06:53:00
2:53 AM,24.1,-0.9,34,30.10,10.0,NW,18.4,27.6,N/A,,Clear,310,2013-11-24 07:53:00
3:53 AM,24.1,-0.9,34,30.10,10.0,NW,15.0,29.9,N/A,,Clear,310,2013-11-24 08:53:00
4:53 AM,23.0,-0.0,37,30.11,10.0,WNW,12.7,21.9,N/A,,Partly Cloudy,300,2013-11-24 09:53:00
5:53 AM,23.0,1.0,39,30.12,10.0,NW,18.4,26.5,N/A,,Clear,310,2013-11-24 10:53:00
6:53 AM,21.9,1.9,42,30.15,10.0,NW,21.9,29.9,N/A,,Clear,320,2013-11-24 11:53:00
7:53 AM,23.0,1.0,39,30.17,10.0,WNW,13.8,24.2,N/A,,Clear,300,2013-11-24 12:53:00
8:53 AM,24.1,1.9,38,30.19,10.0,WNW,21.9,34.5,N/A,,Clear,300,2013-11-24 13:53:00
9:53 AM,25.0,1.0,36,30.22,10.0,NNW,23.0,36.8,N/A,,Partly Cloudy,330,2013-11-24 14:53:00
10:53 AM,27.0,1.0,33,30.22,10.0,WNW,17.3,36.8,N/A,,Mostly Cloudy,300,2013-11-24 15:53:00
11:53 AM,27.0,1.0,33,30.22,10.0,WNW,19.6,32.2,N/A,,Overcast,300,2013-11-24 16:53:00
12:53 PM,28.0,1.0,31,30.22,10.0,NW,24.2,40.3,N/A,,Mostly Cloudy,320,2013-11-24 17:53:00
1:53 PM,28.9,3.0,33,30.24,10.0,NW,18.4,29.9,N/A,,Mostly Cloudy,320,2013-11-24 18:53:00
2:53 PM,27.0,3.0,36,30.27,10.0,NW,17.3,27.6,N/A,,Mostly Cloudy,310,2013-11-24 19:53:00
3:53 PM,27.0,1.9,34,30.29,10.0,NW,16.1,27.6,N/A,,Partly Cloudy,320,2013-11-24 20:53:00
4:53 PM,26.1,-0.0,32,30.31,10.0,NW,12.7,-,N/A,,Clear,320,2013-11-24 21:53:00
5:53 PM,26.1,-0.9,31,30.34,10.0,WNW,9.2,20.7,N/A,,Clear,300,2013-11-24 22:53:00
6:53 PM,25.0,-0.9,33,30.37,10.0,WNW,5.8,-,N/A,,Clear,300,2013-11-24 23:53:00
7:53 PM,23.0,1.0,39,30.38,10.0,WNW,3.5,-,N/A,,Clear,290,2013-11-25 00:53:00
8:53 PM,23.0,1.0,39,30.38,10.0,Variable,5.8,-,N/A,,Clear,0,2013-11-25 01:53:00
9:53 PM,24.1,1.9,38,30.39,10.0,WNW,9.2,-,N/A,,Clear,290,2013-11-25 02:53:00
10:53 PM,24.1,3.0,40,30.40,10.0,Variable,3.5,-,N/A,,Clear,0,2013-11-25 03:53:00
11:53 PM,21.9,5.0,48,30.40,10.0,WNW,8.1,-,N/A,,Clear,300,2013-11-25 04:53:00